Location: Bannatyne
(13.0833°N, 59.5333°W)
Time: 10:30:25
(UTC+00:00)

Explorer 7 - Pass Details

Date: 29 January 2020
Orbit: 485 x 679 km, 50.3° (Epoch: 20 February)

Event Time Altitude Azimuth Distance (km) Brightness Sun altitude
Rises 08:47:58 0° 331° (NNW) 2,633 - -23.5°
Reaches altitude 10° 08:50:11 10° 338° (NNW) 1,774 - -23.0°
Exits shadow 08:52:53 35° 7° (N) 898 7.8 -22.3°
Maximum altitude 08:54:03 45° 51° (NE) 764 7.7 -22.1°
Drops below altitude 10° 08:58:10 10° 124° (SE) 1,888 10.6 -21.1°
Sets 09:00:35 0° 130° (SE) 2,824 11.6 -20.5°
